Voltar ao catálogo

THOR BURNER 2 DEB

LostPO
NORAD 25122·DEBRIS·🇺🇸 United States

Lançado Jun 29, 1967 de Vandenberg Space Force Base

Loading…

Próximas Passagens (próximas 24 horas)

TLE

ObsoletoSource: Space-Track

Época: Dec 15, 2013, 16:54 UTC

1 25122U 67065E   13349.70428741  .00000002  00000-0  10000-3 0  9995
2 25122  90.1227 280.6447 0036730 207.2106 152.7018  8.34951246553293

Acompanhe THOR BURNER 2 DEB em tempo real com AllMySat

Download on the App Store